�N����,�����b,���ԉ��x,���Ԏ��x,��󒲎�,����,�����W
2002/12/1,0:00:00,20.8 ,48.4 ,15.3 ,12.5 ,19.4 
2002/12/1,0:15:00,20.7 ,48.5 ,15.3 ,12.6 ,19.3 
2002/12/1,0:30:00,20.6 ,48.4 ,15.2 ,12.7 ,19.3 
2002/12/1,0:45:00,20.6 ,48.4 ,15.2 ,12.8 ,19.2 
2002/12/1,1:00:00,20.5 ,48.3 ,15.2 ,13.0 ,19.1 
2002/12/1,1:15:00,20.5 ,48.3 ,15.2 ,13.1 ,19.1 
2002/12/1,1:30:00,20.4 ,48.2 ,15.2 ,13.2 ,19.0 
2002/12/1,1:45:00,20.3 ,48.2 ,15.2 ,13.3 ,18.9 
2002/12/1,2:00:00,20.3 ,48.0 ,15.1 ,13.4 ,18.9 
2002/12/1,2:15:00,20.2 ,48.1 ,15.1 ,13.5 ,18.8 
2002/12/1,2:30:00,20.1 ,48.0 ,15.1 ,13.5 ,18.8 
2002/12/1,2:45:00,20.1 ,47.9 ,15.1 ,13.6 ,18.7 
2002/12/1,3:00:00,20.0 ,47.8 ,15.1 ,13.7 ,18.7 
2002/12/1,3:15:00,20.0 ,47.7 ,15.0 ,13.8 ,18.6 
2002/12/1,3:30:00,19.9 ,47.6 ,15.0 ,13.9 ,18.5 
2002/12/1,3:45:00,19.8 ,47.6 ,15.0 ,13.9 ,18.5 
2002/12/1,4:00:00,19.8 ,47.4 ,14.9 ,14.0 ,18.4 
2002/12/1,4:15:00,19.7 ,47.4 ,14.9 ,14.1 ,18.3 
2002/12/1,4:30:00,19.7 ,47.4 ,14.9 ,14.2 ,18.3 
2002/12/1,4:45:00,19.6 ,47.4 ,14.8 ,14.2 ,18.2 
2002/12/1,5:00:00,19.6 ,47.2 ,14.8 ,14.3 ,18.2 
2002/12/1,5:15:00,19.6 ,47.0 ,14.8 ,14.4 ,18.1 
2002/12/1,5:30:00,19.6 ,46.8 ,14.8 ,14.4 ,18.1 
2002/12/1,5:45:00,19.6 ,46.6 ,14.7 ,14.5 ,18.1 
2002/12/1,6:00:00,19.6 ,46.4 ,14.7 ,14.5 ,18.0 
2002/12/1,6:15:00,19.7 ,46.2 ,14.7 ,14.6 ,18.0 
2002/12/1,6:30:00,19.7 ,46.0 ,14.6 ,14.7 ,18.0 
2002/12/1,6:45:00,19.8 ,45.8 ,14.6 ,14.7 ,17.9 
2002/12/1,7:00:00,19.9 ,45.9 ,14.6 ,11.6 ,18.0 
2002/12/1,7:15:00,19.9 ,45.4 ,14.6 ,11.7 ,18.0 
2002/12/1,7:30:00,20.0 ,45.3 ,14.5 ,11.8 ,18.0 
2002/12/1,7:45:00,20.1 ,45.1 ,14.5 ,11.9 ,18.0 
2002/12/1,8:00:00,20.2 ,45.0 ,14.5 ,12.0 ,18.1 
2002/12/1,8:15:00,20.2 ,45.1 ,14.5 ,12.1 ,18.1 
2002/12/1,8:30:00,20.4 ,45.1 ,14.5 ,12.3 ,18.2 
2002/12/1,8:45:00,20.5 ,45.3 ,14.5 ,12.4 ,18.3 
2002/12/1,9:00:00,20.6 ,45.4 ,14.5 ,12.5 ,18.3 
2002/12/1,9:15:00,20.7 ,45.3 ,14.6 ,12.6 ,18.4 
2002/12/1,9:30:00,20.8 ,45.3 ,14.6 ,12.8 ,18.5 
2002/12/1,9:45:00,20.9 ,45.5 ,14.6 ,12.9 ,18.6 
2002/12/1,10:00:00,21.0 ,45.9 ,14.6 ,13.0 ,18.8 
2002/12/1,10:15:00,21.1 ,46.5 ,14.6 ,9.9 ,18.9 
2002/12/1,10:30:00,21.2 ,46.1 ,14.7 ,9.1 ,19.0 
2002/12/1,10:45:00,21.4 ,46.0 ,14.7 ,9.3 ,19.1 
2002/12/1,11:00:00,21.5 ,45.8 ,14.7 ,9.4 ,19.2 
2002/12/1,11:15:00,21.6 ,45.9 ,14.8 ,9.5 ,19.5 
2002/12/1,11:30:00,21.7 ,46.1 ,14.8 ,9.7 ,19.6 
2002/12/1,11:45:00,21.9 ,45.8 ,14.9 ,9.1 ,19.7 
2002/12/1,12:00:00,22.2 ,45.4 ,14.9 ,9.3 ,19.8 
2002/12/1,12:15:00,22.4 ,45.0 ,14.9 ,9.4 ,20.0 
2002/12/1,12:30:00,22.5 ,44.7 ,15.0 ,9.6 ,20.2 
2002/12/1,12:45:00,22.5 ,44.4 ,15.0 ,9.7 ,20.3 
2002/12/1,13:00:00,22.4 ,44.5 ,15.1 ,9.8 ,20.4 
2002/12/1,13:15:00,22.5 ,44.5 ,15.1 ,10.0 ,20.9 
2002/12/1,13:30:00,22.7 ,44.5 ,15.1 ,10.2 ,21.1 
2002/12/1,13:45:00,22.7 ,44.2 ,15.1 ,10.3 ,21.1 
2002/12/1,14:00:00,22.7 ,44.5 ,15.2 ,10.5 ,21.1 
2002/12/1,14:15:00,22.7 ,44.8 ,15.2 ,9.2 ,21.0 
2002/12/1,14:30:00,22.6 ,45.1 ,15.3 ,9.3 ,21.0 
2002/12/1,14:45:00,22.5 ,44.6 ,15.3 ,9.5 ,20.9 
2002/12/1,15:00:00,22.5 ,44.6 ,15.3 ,9.7 ,20.9 
2002/12/1,15:15:00,22.4 ,44.6 ,15.4 ,9.8 ,20.8 
2002/12/1,15:30:00,22.4 ,44.8 ,15.4 ,10.0 ,20.7 
2002/12/1,15:45:00,22.3 ,44.8 ,15.4 ,10.1 ,20.7 
2002/12/1,16:00:00,22.3 ,44.8 ,15.4 ,10.3 ,20.6 
2002/12/1,16:15:00,22.3 ,45.0 ,15.4 ,10.5 ,20.6 
2002/12/1,16:30:00,22.2 ,45.1 ,15.4 ,9.1 ,20.5 
2002/12/1,16:45:00,22.1 ,45.3 ,15.4 ,9.3 ,20.5 
2002/12/1,17:00:00,22.2 ,45.2 ,15.4 ,9.5 ,20.4 
2002/12/1,17:15:00,22.2 ,45.3 ,15.4 ,9.6 ,20.4 
2002/12/1,17:30:00,22.1 ,45.4 ,15.4 ,9.8 ,20.3 
2002/12/1,17:45:00,22.1 ,45.4 ,15.4 ,9.9 ,20.2 
2002/12/1,18:00:00,22.0 ,45.4 ,15.4 ,10.1 ,20.2 
2002/12/1,18:15:00,21.9 ,45.3 ,15.4 ,10.2 ,20.1 
2002/12/1,18:30:00,21.9 ,45.2 ,15.3 ,10.4 ,20.0 
2002/12/1,18:45:00,21.8 ,45.1 ,15.3 ,9.4 ,20.0 
2002/12/1,19:00:00,21.8 ,45.1 ,15.4 ,9.5 ,20.1 
2002/12/1,19:15:00,21.8 ,45.3 ,15.3 ,9.7 ,21.0 
2002/12/1,19:30:00,21.7 ,45.2 ,15.3 ,9.8 ,21.1 
2002/12/1,19:45:00,21.6 ,45.0 ,15.3 ,10.0 ,20.7 
2002/12/1,20:00:00,21.6 ,45.0 ,15.3 ,10.1 ,20.5 
2002/12/1,20:15:00,21.5 ,45.0 ,15.3 ,10.3 ,20.2 
2002/12/1,20:30:00,21.4 ,44.9 ,15.2 ,10.5 ,20.1 
2002/12/1,20:45:00,21.4 ,45.0 ,15.2 ,10.6 ,19.9 
2002/12/1,21:00:00,21.3 ,44.9 ,15.2 ,10.8 ,19.8 
2002/12/1,21:15:00,21.2 ,44.9 ,15.2 ,10.9 ,19.7 
2002/12/1,21:30:00,21.2 ,44.9 ,15.2 ,11.1 ,19.6 
2002/12/1,21:45:00,21.1 ,44.9 ,15.2 ,10.4 ,19.5 
2002/12/1,22:00:00,21.0 ,44.9 ,15.2 ,10.6 ,19.5 
2002/12/1,22:15:00,21.1 ,47.1 ,15.1 ,10.7 ,19.4 
2002/12/1,22:30:00,21.1 ,47.8 ,15.1 ,10.9 ,19.4 
2002/12/1,22:45:00,21.0 ,48.5 ,15.1 ,11.0 ,19.3 
2002/12/1,23:00:00,21.0 ,48.3 ,15.1 ,10.3 ,19.3 
2002/12/1,23:15:00,20.9 ,48.2 ,15.1 ,10.5 ,19.3 
2002/12/1,23:30:00,20.9 ,48.0 ,15.0 ,10.6 ,19.6 
2002/12/1,23:45:00,20.9 ,48.0 ,14.9 ,10.8 ,19.7 
2002/12/2,0:00:00,20.8 ,47.7 ,14.9 ,10.6 ,19.7 
2002/12/2,0:15:00,20.7 ,47.9 ,14.9 ,10.8 ,19.6 
2002/12/2,0:30:00,20.6 ,47.3 ,14.9 ,10.9 ,19.5 
2002/12/2,0:45:00,20.5 ,47.3 ,14.9 ,11.0 ,19.4 
2002/12/2,1:00:00,20.4 ,47.3 ,14.8 ,11.2 ,19.3 
2002/12/2,1:15:00,20.3 ,47.5 ,14.8 ,11.4 ,19.1 
2002/12/2,1:30:00,20.2 ,47.7 ,14.8 ,11.6 ,19.0 
2002/12/2,1:45:00,20.1 ,48.0 ,14.8 ,11.7 ,18.9 
2002/12/2,2:00:00,20.0 ,47.9 ,14.8 ,11.9 ,18.8 
2002/12/2,2:15:00,19.9 ,47.9 ,14.7 ,12.0 ,18.6 
2002/12/2,2:30:00,19.8 ,48.0 ,14.7 ,12.2 ,18.6 
2002/12/2,2:45:00,19.8 ,48.0 ,14.7 ,12.3 ,18.5 
2002/12/2,3:00:00,19.7 ,48.0 ,14.7 ,12.5 ,18.4 
2002/12/2,3:15:00,19.6 ,48.0 ,14.7 ,12.6 ,18.3 
2002/12/2,3:30:00,19.6 ,47.8 ,14.6 ,12.7 ,18.2 
2002/12/2,3:45:00,19.5 ,47.8 ,14.6 ,12.8 ,18.1 
2002/12/2,4:00:00,19.5 ,47.7 ,14.6 ,12.9 ,18.1 
2002/12/2,4:15:00,19.5 ,47.6 ,14.5 ,13.1 ,18.0 
2002/12/2,4:30:00,19.4 ,47.5 ,14.5 ,13.2 ,18.0 
2002/12/2,4:45:00,19.4 ,47.4 ,14.5 ,13.3 ,17.9 
2002/12/2,5:00:00,19.3 ,47.3 ,14.5 ,13.4 ,17.9 
2002/12/2,5:15:00,19.3 ,47.2 ,14.4 ,13.4 ,17.8 
2002/12/2,5:30:00,19.3 ,47.1 ,14.4 ,13.5 ,17.8 
2002/12/2,5:45:00,19.3 ,46.9 ,14.4 ,13.6 ,17.8 
2002/12/2,6:00:00,19.3 ,46.7 ,14.4 ,13.7 ,17.8 
2002/12/2,6:15:00,19.4 ,46.3 ,14.4 ,13.8 ,17.7 
2002/12/2,6:30:00,19.4 ,46.2 ,14.3 ,13.9 ,17.7 
2002/12/2,6:45:00,19.5 ,46.3 ,14.3 ,13.9 ,17.8 
2002/12/2,7:00:00,19.5 ,46.0 ,14.3 ,14.0 ,17.8 
2002/12/2,7:15:00,19.6 ,45.7 ,14.3 ,14.1 ,17.8 
2002/12/2,7:30:00,19.6 ,45.6 ,14.3 ,14.2 ,17.9 
2002/12/2,7:45:00,19.7 ,45.8 ,14.3 ,11.4 ,17.9 
2002/12/2,8:00:00,19.8 ,46.0 ,14.2 ,11.5 ,18.2 
2002/12/2,8:15:00,19.9 ,45.8 ,14.2 ,9.2 ,18.3 
2002/12/2,8:30:00,19.9 ,45.7 ,14.2 ,9.4 ,19.0 
2002/12/2,8:45:00,20.0 ,45.4 ,14.2 ,9.0 ,19.1 
2002/12/2,9:00:00,20.3 ,45.3 ,14.2 ,9.2 ,19.0 
2002/12/2,9:15:00,20.4 ,45.3 ,14.2 ,9.3 ,19.0 
2002/12/2,9:30:00,20.4 ,45.6 ,14.3 ,9.4 ,18.9 
2002/12/2,9:45:00,20.4 ,45.7 ,14.3 ,9.6 ,18.9 
2002/12/2,10:00:00,20.5 ,45.7 ,14.3 ,9.7 ,18.9 
2002/12/2,10:15:00,20.5 ,45.8 ,14.3 ,9.8 ,18.8 
2002/12/2,10:30:00,20.4 ,45.9 ,14.3 ,10.0 ,18.8 
2002/12/2,10:45:00,20.4 ,47.4 ,14.3 ,10.1 ,18.8 
2002/12/2,11:00:00,20.7 ,48.0 ,14.4 ,10.3 ,18.8 
2002/12/2,11:15:00,20.5 ,48.9 ,14.4 ,10.4 ,18.8 
2002/12/2,11:30:00,20.5 ,49.6 ,14.4 ,10.6 ,18.8 
2002/12/2,11:45:00,20.5 ,49.7 ,14.4 ,9.6 ,18.8 
2002/12/2,12:00:00,20.4 ,49.7 ,14.5 ,9.7 ,19.2 
2002/12/2,12:15:00,20.5 ,50.0 ,14.5 ,9.9 ,19.6 
2002/12/2,12:30:00,20.5 ,50.3 ,14.5 ,10.0 ,19.6 
2002/12/2,12:45:00,20.5 ,50.1 ,14.5 ,10.1 ,19.5 
2002/12/2,13:00:00,20.5 ,50.2 ,14.5 ,10.3 ,19.4 
2002/12/2,13:15:00,20.5 ,50.2 ,14.5 ,10.4 ,19.2 
2002/12/2,13:30:00,20.4 ,50.0 ,14.5 ,10.6 ,19.2 
2002/12/2,13:45:00,20.3 ,50.0 ,14.5 ,10.7 ,19.1 
2002/12/2,14:00:00,20.3 ,49.6 ,14.5 ,10.8 ,19.0 
2002/12/2,14:15:00,20.2 ,49.3 ,14.5 ,11.0 ,18.9 
2002/12/2,14:30:00,20.2 ,49.1 ,14.5 ,11.1 ,18.9 
2002/12/2,14:45:00,20.2 ,48.9 ,14.5 ,11.2 ,18.8 
2002/12/2,15:00:00,20.2 ,48.7 ,14.5 ,11.4 ,18.7 
2002/12/2,15:15:00,20.2 ,48.5 ,14.5 ,11.5 ,18.6 
2002/12/2,15:30:00,20.2 ,48.3 ,14.5 ,9.5 ,18.6 
2002/12/2,15:45:00,20.2 ,48.2 ,14.5 ,9.7 ,18.6 
2002/12/2,16:00:00,20.1 ,48.1 ,14.5 ,9.8 ,18.5 
2002/12/2,16:15:00,20.1 ,47.9 ,14.5 ,9.9 ,18.5 
2002/12/2,16:30:00,20.1 ,47.8 ,14.5 ,10.0 ,18.5 
2002/12/2,16:45:00,20.1 ,47.5 ,14.5 ,10.2 ,18.5 
2002/12/2,17:00:00,20.0 ,47.4 ,14.5 ,10.3 ,18.5 
2002/12/2,17:15:00,20.0 ,47.3 ,14.5 ,10.5 ,18.4 
2002/12/2,17:30:00,20.0 ,47.2 ,14.5 ,10.6 ,18.3 
2002/12/2,17:45:00,20.0 ,47.1 ,14.5 ,9.3 ,18.3 
2002/12/2,18:00:00,19.9 ,47.1 ,14.5 ,9.5 ,18.3 
2002/12/2,18:15:00,19.9 ,47.0 ,14.5 ,9.6 ,18.3 
2002/12/2,18:30:00,19.9 ,47.1 ,14.5 ,9.7 ,18.2 
2002/12/2,18:45:00,19.9 ,47.0 ,14.5 ,9.8 ,18.2 
2002/12/2,19:00:00,19.8 ,47.0 ,14.4 ,10.0 ,18.2 
2002/12/2,19:15:00,19.8 ,47.3 ,14.4 ,10.1 ,18.4 
2002/12/2,19:30:00,19.8 ,47.4 ,14.4 ,10.3 ,18.3 
2002/12/2,19:45:00,19.8 ,47.4 ,14.4 ,10.4 ,18.3 
2002/12/2,20:00:00,19.7 ,47.6 ,14.4 ,9.0 ,18.2 
2002/12/2,20:15:00,19.7 ,47.8 ,14.4 ,9.2 ,18.2 
2002/12/2,20:30:00,19.7 ,47.8 ,14.4 ,9.4 ,18.2 
2002/12/2,20:45:00,19.7 ,47.7 ,14.4 ,9.5 ,18.2 
2002/12/2,21:00:00,19.6 ,47.6 ,14.4 ,9.6 ,18.1 
2002/12/2,21:15:00,19.6 ,47.5 ,14.4 ,9.7 ,18.1 
2002/12/2,21:30:00,19.5 ,47.2 ,14.3 ,9.9 ,18.0 
2002/12/2,21:45:00,19.5 ,47.1 ,14.3 ,10.0 ,18.1 
2002/12/2,22:00:00,19.6 ,47.9 ,14.3 ,10.1 ,18.1 
2002/12/2,22:15:00,19.5 ,48.2 ,14.3 ,10.3 ,18.1 
2002/12/2,22:30:00,19.5 ,48.9 ,14.3 ,10.4 ,18.1 
2002/12/2,22:45:00,19.5 ,49.0 ,14.3 ,10.6 ,18.0 
2002/12/2,23:00:00,19.5 ,49.2 ,14.2 ,10.7 ,18.0 
2002/12/2,23:15:00,19.5 ,49.5 ,14.2 ,10.8 ,18.3 
2002/12/2,23:30:00,19.5 ,49.2 ,14.2 ,11.0 ,18.3 
2002/12/2,23:45:00,19.4 ,49.0 ,14.2 ,11.1 ,18.2 
2002/12/3,0:00:00,19.4 ,48.5 ,14.2 ,11.2 ,18.2 
2002/12/3,0:15:00,19.3 ,48.4 ,14.2 ,11.3 ,18.1 
2002/12/3,0:30:00,19.2 ,48.2 ,14.2 ,11.4 ,18.0 
2002/12/3,0:45:00,19.2 ,48.0 ,14.2 ,11.6 ,17.9 
2002/12/3,1:00:00,19.2 ,47.9 ,14.2 ,11.7 ,17.9 
2002/12/3,1:15:00,19.1 ,47.8 ,14.1 ,11.8 ,17.8 
2002/12/3,1:30:00,19.1 ,47.7 ,14.1 ,11.9 ,17.7 
2002/12/3,1:45:00,19.0 ,47.6 ,14.1 ,12.0 ,17.6 
2002/12/3,2:00:00,19.0 ,47.7 ,14.1 ,12.1 ,17.6 
2002/12/3,2:15:00,18.9 ,47.5 ,14.1 ,12.2 ,17.5 
2002/12/3,2:30:00,18.9 ,47.5 ,14.1 ,12.3 ,17.4 
2002/12/3,2:45:00,18.8 ,47.3 ,14.1 ,12.4 ,17.3 
2002/12/3,3:00:00,18.8 ,47.3 ,14.0 ,12.4 ,17.3 
2002/12/3,3:15:00,18.7 ,47.2 ,14.0 ,12.5 ,17.2 
2002/12/3,3:30:00,18.7 ,47.0 ,14.0 ,12.6 ,17.1 
2002/12/3,3:45:00,18.6 ,47.0 ,14.0 ,12.7 ,17.1 
2002/12/3,4:00:00,18.6 ,46.8 ,13.9 ,12.8 ,17.0 
2002/12/3,4:15:00,18.5 ,46.8 ,13.9 ,12.8 ,17.0 
2002/12/3,4:30:00,18.5 ,46.6 ,13.9 ,12.9 ,17.0 
2002/12/3,4:45:00,18.4 ,46.7 ,13.9 ,13.0 ,16.9 
2002/12/3,5:00:00,18.4 ,46.6 ,13.8 ,13.0 ,16.9 
2002/12/3,5:15:00,18.3 ,46.6 ,13.8 ,13.1 ,16.8 
2002/12/3,5:30:00,18.3 ,46.5 ,13.8 ,13.2 ,16.8 
2002/12/3,5:45:00,18.3 ,46.3 ,13.7 ,13.2 ,16.7 
2002/12/3,6:00:00,18.3 ,46.2 ,13.7 ,13.3 ,16.7 
2002/12/3,6:15:00,18.3 ,46.0 ,13.7 ,13.4 ,16.7 
2002/12/3,6:30:00,18.3 ,45.9 ,13.7 ,13.4 ,16.6 
2002/12/3,6:45:00,18.3 ,45.7 ,13.6 ,13.5 ,16.6 
2002/12/3,7:00:00,18.4 ,45.6 ,13.6 ,11.1 ,16.6 
2002/12/3,7:15:00,18.5 ,45.6 ,13.6 ,11.2 ,16.6 
2002/12/3,7:30:00,18.7 ,45.9 ,13.6 ,11.3 ,16.6 
2002/12/3,7:45:00,19.0 ,46.2 ,13.6 ,11.4 ,16.9 
2002/12/3,8:00:00,19.2 ,45.6 ,13.6 ,9.3 ,17.1 
2002/12/3,8:15:00,19.6 ,45.5 ,13.6 ,8.9 ,17.4 
2002/12/3,8:30:00,19.9 ,46.6 ,13.7 ,9.1 ,17.7 
2002/12/3,8:45:00,20.3 ,46.8 ,13.7 ,9.2 ,18.0 
2002/12/3,9:00:00,20.6 ,45.2 ,13.7 ,9.3 ,18.3 
2002/12/3,9:15:00,20.7 ,45.0 ,13.7 ,9.4 ,18.4 
2002/12/3,9:30:00,20.7 ,44.7 ,13.8 ,9.6 ,18.8 
2002/12/3,9:45:00,20.8 ,44.9 ,13.8 ,9.7 ,18.8 
2002/12/3,10:00:00,21.3 ,44.2 ,13.9 ,9.8 ,19.1 
2002/12/3,10:15:00,21.6 ,43.5 ,13.9 ,9.9 ,19.3 
2002/12/3,10:30:00,21.9 ,43.3 ,14.0 ,10.1 ,19.6 
2002/12/3,10:45:00,22.1 ,43.1 ,14.0 ,10.2 ,19.8 
2002/12/3,11:00:00,22.2 ,43.0 ,14.1 ,10.4 ,20.0 
2002/12/3,11:15:00,22.5 ,42.8 ,14.1 ,10.5 ,20.4 
2002/12/3,11:30:00,22.7 ,42.6 ,14.2 ,10.7 ,20.6 
2002/12/3,11:45:00,22.8 ,42.7 ,14.3 ,10.8 ,20.9 
2002/12/3,12:00:00,22.9 ,42.7 ,14.3 ,11.0 ,21.1 
2002/12/3,12:15:00,22.8 ,42.7 ,14.4 ,11.1 ,21.2 
2002/12/3,12:30:00,22.7 ,43.3 ,14.4 ,9.4 ,21.3 
2002/12/3,12:45:00,22.9 ,42.9 ,14.5 ,9.6 ,21.4 
2002/12/3,13:00:00,23.2 ,42.9 ,14.5 ,9.7 ,21.5 
2002/12/3,13:15:00,23.2 ,42.2 ,14.6 ,9.9 ,21.5 
2002/12/3,13:30:00,23.1 ,42.8 ,14.6 ,10.0 ,21.5 
2002/12/3,13:45:00,23.1 ,42.5 ,14.7 ,10.2 ,21.5 
2002/12/3,14:00:00,23.0 ,43.1 ,14.8 ,10.4 ,21.5 
2002/12/3,14:15:00,22.9 ,43.5 ,14.8 ,10.5 ,21.4 
2002/12/3,14:30:00,22.9 ,43.6 ,14.8 ,10.7 ,21.4 
2002/12/3,14:45:00,22.8 ,43.7 ,14.9 ,10.9 ,21.3 
2002/12/3,15:00:00,22.7 ,43.8 ,14.9 ,9.3 ,21.2 
2002/12/3,15:15:00,22.7 ,44.1 ,15.0 ,9.4 ,21.2 
2002/12/3,15:30:00,22.7 ,44.4 ,15.1 ,9.6 ,21.2 
2002/12/3,15:45:00,22.6 ,44.4 ,15.1 ,9.7 ,21.1 
2002/12/3,16:00:00,22.6 ,44.6 ,15.1 ,9.9 ,21.0 
2002/12/3,16:15:00,22.6 ,44.6 ,15.2 ,10.1 ,21.0 
2002/12/3,16:30:00,22.5 ,44.9 ,15.2 ,10.2 ,20.9 
2002/12/3,16:45:00,22.4 ,45.0 ,15.2 ,10.4 ,20.9 
2002/12/3,17:00:00,22.3 ,44.9 ,15.2 ,10.6 ,20.8 
2002/12/3,17:15:00,22.3 ,44.9 ,15.2 ,10.8 ,20.7 
2002/12/3,17:30:00,22.2 ,45.0 ,15.2 ,10.9 ,20.6 
2002/12/3,17:45:00,22.1 ,45.0 ,15.2 ,11.1 ,20.5 
2002/12/3,18:00:00,22.1 ,45.1 ,15.2 ,11.2 ,20.6 
2002/12/3,18:15:00,22.0 ,44.9 ,15.2 ,11.4 ,21.1 
2002/12/3,18:30:00,22.0 ,44.8 ,15.2 ,11.5 ,21.2 
2002/12/3,18:45:00,22.0 ,45.2 ,15.2 ,11.7 ,21.0 
2002/12/3,19:00:00,21.9 ,45.2 ,15.2 ,11.8 ,20.8 
2002/12/3,19:15:00,21.8 ,45.3 ,15.2 ,11.9 ,20.7 
2002/12/3,19:30:00,21.8 ,45.4 ,15.2 ,9.8 ,20.5 
2002/12/3,19:45:00,21.8 ,45.4 ,15.2 ,9.9 ,20.4 
2002/12/3,20:00:00,21.7 ,45.0 ,15.2 ,10.0 ,20.6 
2002/12/3,20:15:00,21.6 ,44.9 ,15.2 ,10.2 ,21.1 
2002/12/3,20:30:00,21.4 ,44.6 ,15.2 ,9.1 ,21.3 
2002/12/3,20:45:00,21.3 ,44.7 ,15.1 ,9.3 ,21.0 
2002/12/3,21:00:00,21.4 ,45.1 ,15.1 ,9.5 ,21.2 
2002/12/3,21:15:00,21.4 ,45.2 ,15.0 ,9.6 ,21.1 
2002/12/3,21:30:00,21.3 ,45.4 ,15.0 ,9.7 ,21.0 
2002/12/3,21:45:00,21.3 ,45.6 ,15.0 ,9.9 ,20.9 
2002/12/3,22:00:00,21.3 ,45.6 ,15.0 ,10.0 ,20.5 
2002/12/3,22:15:00,21.3 ,45.7 ,15.0 ,10.2 ,20.3 
2002/12/3,22:30:00,21.1 ,45.9 ,14.9 ,10.1 ,20.2 
2002/12/3,22:45:00,21.0 ,45.9 ,14.9 ,10.3 ,20.0 
2002/12/3,23:00:00,21.0 ,47.2 ,14.9 ,10.4 ,19.8 
2002/12/3,23:15:00,21.0 ,47.2 ,14.9 ,10.6 ,19.7 
2002/12/3,23:30:00,20.9 ,47.2 ,14.9 ,10.7 ,19.6 
2002/12/3,23:45:00,20.9 ,47.1 ,14.9 ,10.8 ,19.6 
2002/12/4,0:00:00,20.7 ,46.8 ,14.9 ,11.0 ,19.5 
2002/12/4,0:15:00,20.6 ,46.5 ,14.9 ,11.2 ,19.4 
2002/12/4,0:30:00,20.6 ,46.4 ,14.8 ,11.3 ,19.3 
2002/12/4,0:45:00,20.5 ,46.2 ,14.8 ,11.5 ,19.1 
2002/12/4,1:00:00,20.4 ,46.1 ,14.8 ,11.6 ,19.0 
2002/12/4,1:15:00,20.3 ,46.1 ,14.8 ,11.8 ,18.9 
2002/12/4,1:30:00,20.3 ,46.0 ,14.8 ,11.9 ,18.9 
2002/12/4,1:45:00,20.2 ,45.9 ,14.8 ,12.1 ,18.8 
2002/12/4,2:00:00,20.1 ,45.8 ,14.8 ,12.2 ,18.7 
2002/12/4,2:15:00,20.0 ,45.9 ,14.7 ,12.4 ,18.6 
2002/12/4,2:30:00,19.9 ,45.7 ,14.7 ,12.5 ,18.6 
2002/12/4,2:45:00,19.9 ,45.8 ,14.7 ,12.6 ,18.5 
2002/12/4,3:00:00,19.8 ,45.7 ,14.7 ,12.8 ,18.4 
2002/12/4,3:15:00,19.8 ,45.7 ,14.6 ,12.9 ,18.3 
2002/12/4,3:30:00,19.7 ,45.6 ,14.6 ,13.0 ,18.3 
2002/12/4,3:45:00,19.7 ,45.6 ,14.6 ,13.1 ,18.2 
2002/12/4,4:00:00,19.6 ,45.7 ,14.6 ,13.2 ,18.2 
2002/12/4,4:15:00,19.5 ,45.6 ,14.6 ,13.3 ,18.1 
2002/12/4,4:30:00,19.5 ,45.6 ,14.5 ,13.4 ,18.1 
2002/12/4,4:45:00,19.5 ,45.7 ,14.5 ,13.5 ,18.0 
2002/12/4,5:00:00,19.4 ,45.6 ,14.5 ,13.6 ,18.0 
2002/12/4,5:15:00,19.4 ,45.6 ,14.5 ,13.7 ,17.9 
2002/12/4,5:30:00,19.4 ,45.6 ,14.5 ,13.8 ,17.9 
2002/12/4,5:45:00,19.4 ,45.5 ,14.5 ,13.9 ,17.9 
2002/12/4,6:00:00,19.4 ,45.3 ,14.4 ,14.0 ,17.9 
2002/12/4,6:15:00,19.5 ,45.3 ,14.4 ,14.0 ,17.9 
2002/12/4,6:30:00,19.5 ,45.2 ,14.4 ,14.1 ,17.9 
2002/12/4,6:45:00,19.6 ,45.0 ,14.4 ,14.2 ,17.9 
2002/12/4,7:00:00,19.6 ,45.0 ,14.4 ,14.3 ,17.9 
2002/12/4,7:15:00,19.7 ,44.8 ,14.4 ,14.3 ,17.9 
2002/12/4,7:30:00,19.8 ,44.8 ,14.3 ,11.6 ,18.0 
2002/12/4,7:45:00,19.8 ,45.7 ,14.3 ,11.7 ,18.0 
2002/12/4,8:00:00,19.9 ,45.6 ,14.4 ,9.4 ,18.2 
2002/12/4,8:15:00,20.0 ,45.8 ,14.4 ,8.9 ,18.4 
2002/12/4,8:30:00,20.1 ,46.0 ,14.3 ,9.0 ,18.4 
2002/12/4,8:45:00,20.1 ,45.8 ,14.4 ,9.2 ,18.5 
2002/12/4,9:00:00,20.2 ,45.8 ,14.4 ,9.1 ,18.5 
2002/12/4,9:15:00,20.3 ,45.7 ,14.4 ,9.2 ,18.5 
2002/12/4,9:30:00,20.3 ,45.6 ,14.4 ,9.4 ,18.6 
2002/12/4,9:45:00,20.4 ,46.2 ,14.4 ,9.5 ,18.6 
2002/12/4,10:00:00,20.4 ,47.0 ,14.5 ,9.2 ,18.6 
2002/12/4,10:15:00,20.2 ,48.6 ,14.5 ,9.4 ,18.7 
2002/12/4,10:30:00,20.2 ,47.6 ,14.5 ,9.5 ,18.6 
2002/12/4,10:45:00,20.3 ,47.7 ,14.5 ,9.6 ,18.7 
2002/12/4,11:00:00,20.3 ,48.2 ,14.5 ,9.8 ,18.7 
2002/12/4,11:15:00,20.3 ,48.7 ,14.5 ,9.2 ,18.7 
2002/12/4,11:30:00,20.4 ,48.7 ,14.5 ,9.3 ,18.7 
2002/12/4,11:45:00,20.4 ,48.8 ,14.5 ,9.5 ,18.8 
2002/12/4,12:00:00,20.4 ,48.8 ,14.6 ,9.1 ,18.8 
2002/12/4,12:15:00,20.5 ,48.8 ,14.6 ,9.2 ,18.8 
2002/12/4,12:30:00,20.5 ,48.7 ,14.6 ,9.4 ,18.8 
2002/12/4,12:45:00,20.6 ,48.4 ,14.6 ,9.5 ,18.8 
2002/12/4,13:00:00,20.6 ,48.4 ,14.6 ,9.6 ,18.8 
2002/12/4,13:15:00,20.5 ,48.3 ,14.6 ,9.8 ,18.8 
2002/12/4,13:30:00,20.6 ,48.2 ,14.6 ,9.9 ,18.8 
2002/12/4,13:45:00,20.5 ,48.1 ,14.7 ,10.1 ,18.8 
2002/12/4,14:00:00,20.5 ,48.1 ,14.7 ,10.2 ,18.8 
2002/12/4,14:15:00,20.5 ,48.1 ,14.7 ,9.4 ,18.8 
2002/12/4,14:30:00,20.4 ,48.0 ,14.7 ,9.6 ,18.8 
2002/12/4,14:45:00,20.4 ,48.1 ,14.7 ,9.7 ,18.8 
2002/12/4,15:00:00,20.4 ,48.1 ,14.7 ,9.8 ,18.8 
2002/12/4,15:15:00,20.4 ,48.3 ,14.7 ,10.0 ,18.8 
2002/12/4,15:30:00,20.4 ,48.2 ,14.7 ,9.3 ,18.8 
2002/12/4,15:45:00,20.4 ,48.3 ,14.7 ,9.5 ,18.7 
2002/12/4,16:00:00,20.4 ,48.2 ,14.7 ,9.6 ,18.8 
2002/12/4,16:15:00,20.4 ,48.2 ,14.7 ,9.7 ,18.8 
2002/12/4,16:30:00,20.4 ,48.3 ,14.8 ,9.9 ,18.7 
2002/12/4,16:45:00,20.4 ,48.2 ,14.8 ,10.0 ,18.7 
2002/12/4,17:00:00,20.4 ,48.2 ,14.8 ,9.2 ,18.8 
2002/12/4,17:15:00,20.4 ,48.4 ,14.8 ,9.3 ,18.8 
2002/12/4,17:30:00,20.5 ,48.3 ,14.8 ,9.5 ,18.9 
2002/12/4,17:45:00,20.5 ,48.5 ,14.8 ,9.6 ,19.0 
2002/12/4,18:00:00,20.5 ,48.6 ,14.8 ,9.7 ,19.0 
2002/12/4,18:15:00,20.5 ,48.6 ,14.8 ,9.8 ,18.9 
2002/12/4,18:30:00,20.5 ,48.7 ,14.8 ,10.0 ,18.9 
2002/12/4,18:45:00,20.5 ,49.2 ,14.8 ,10.1 ,19.0 
2002/12/4,19:00:00,20.7 ,49.2 ,14.8 ,10.3 ,19.1 
2002/12/4,19:15:00,20.7 ,50.5 ,14.8 ,10.4 ,19.3 
2002/12/4,19:30:00,20.8 ,49.8 ,14.8 ,10.6 ,19.2 
2002/12/4,19:45:00,20.7 ,50.5 ,14.8 ,10.7 ,19.2 
2002/12/4,20:00:00,20.6 ,50.2 ,14.8 ,10.8 ,19.1 
2002/12/4,20:15:00,20.6 ,50.1 ,14.8 ,11.0 ,19.2 
2002/12/4,20:30:00,20.5 ,49.8 ,14.8 ,11.1 ,19.2 
2002/12/4,20:45:00,20.5 ,49.8 ,14.8 ,11.3 ,19.2 
2002/12/4,21:00:00,20.5 ,50.0 ,14.8 ,11.4 ,19.1 
2002/12/4,21:15:00,20.5 ,49.8 ,14.8 ,11.2 ,19.1 
2002/12/4,21:30:00,20.5 ,50.1 ,14.8 ,10.6 ,19.2 
2002/12/4,21:45:00,20.4 ,49.9 ,14.8 ,10.7 ,19.2 
2002/12/4,22:00:00,20.4 ,50.4 ,14.8 ,10.9 ,19.2 
2002/12/4,22:15:00,20.4 ,50.2 ,14.8 ,11.0 ,19.1 
2002/12/4,22:30:00,20.4 ,51.2 ,14.8 ,11.2 ,19.2 
2002/12/4,22:45:00,20.5 ,51.2 ,14.8 ,11.4 ,19.2 
2002/12/4,23:00:00,20.5 ,51.4 ,14.8 ,11.5 ,19.3 
2002/12/4,23:15:00,20.4 ,51.3 ,14.8 ,11.7 ,19.2 
2002/12/4,23:30:00,20.5 ,51.2 ,14.9 ,12.0 ,19.2 
2002/12/4,23:45:00,20.4 ,51.0 ,14.9 ,10.7 ,19.2 
2002/12/5,0:00:00,20.3 ,51.0 ,14.9 ,10.8 ,19.1 
2002/12/5,0:15:00,20.3 ,51.0 ,14.9 ,10.9 ,19.1 
2002/12/5,0:30:00,20.2 ,51.0 ,14.9 ,11.1 ,19.1 
2002/12/5,0:45:00,20.2 ,51.1 ,14.9 ,11.3 ,19.0 
2002/12/5,1:00:00,20.2 ,51.2 ,14.9 ,11.5 ,19.0 
2002/12/5,1:15:00,20.1 ,51.3 ,14.9 ,11.6 ,18.9 
2002/12/5,1:30:00,20.1 ,51.3 ,14.9 ,11.8 ,18.9 
2002/12/5,1:45:00,20.1 ,51.5 ,14.9 ,12.0 ,18.9 
2002/12/5,2:00:00,20.1 ,51.4 ,14.9 ,12.1 ,18.9 
2002/12/5,2:15:00,20.1 ,51.5 ,14.9 ,12.3 ,18.9 
2002/12/5,2:30:00,20.0 ,51.7 ,15.0 ,12.4 ,18.9 
2002/12/5,2:45:00,20.0 ,52.0 ,15.0 ,12.5 ,18.9 
2002/12/5,3:00:00,20.0 ,52.2 ,15.0 ,12.7 ,19.0 
2002/12/5,3:15:00,20.0 ,52.4 ,15.0 ,12.8 ,19.0 
2002/12/5,3:30:00,20.0 ,52.6 ,15.0 ,12.9 ,19.0 
2002/12/5,3:45:00,20.0 ,52.8 ,15.1 ,13.0 ,19.0 
2002/12/5,4:00:00,20.0 ,52.9 ,15.1 ,13.2 ,19.1 
2002/12/5,4:15:00,20.0 ,53.0 ,15.1 ,13.3 ,19.1 
2002/12/5,4:30:00,20.1 ,53.2 ,15.1 ,13.4 ,19.1 
2002/12/5,4:45:00,20.1 ,53.3 ,15.1 ,13.5 ,19.1 
2002/12/5,5:00:00,20.1 ,53.3 ,15.1 ,13.5 ,19.2 
2002/12/5,5:15:00,20.2 ,53.1 ,15.2 ,13.7 ,19.2 
2002/12/5,5:30:00,20.3 ,53.0 ,15.2 ,13.7 ,19.2 
2002/12/5,5:45:00,20.3 ,52.8 ,15.2 ,13.8 ,19.2 
2002/12/5,6:00:00,20.4 ,52.7 ,15.2 ,13.9 ,19.2 
2002/12/5,6:15:00,20.5 ,52.6 ,15.2 ,14.0 ,19.2 
2002/12/5,6:30:00,20.7 ,52.4 ,15.3 ,14.1 ,19.3 
2002/12/5,6:45:00,20.8 ,52.3 ,15.3 ,14.2 ,19.4 
2002/12/5,7:00:00,20.9 ,52.2 ,15.3 ,14.3 ,19.4 
2002/12/5,7:15:00,21.0 ,52.1 ,15.3 ,11.7 ,19.6 
2002/12/5,7:30:00,21.2 ,51.8 ,15.4 ,11.8 ,19.7 
2002/12/5,7:45:00,21.3 ,51.6 ,15.4 ,9.7 ,19.7 
2002/12/5,8:00:00,21.4 ,51.4 ,15.4 ,9.9 ,19.8 
2002/12/5,8:15:00,21.6 ,51.1 ,15.5 ,10.4 ,19.8 
2002/12/5,8:30:00,21.6 ,51.1 ,15.5 ,9.5 ,19.9 
2002/12/5,8:45:00,21.7 ,51.1 ,15.5 ,9.7 ,19.9 
2002/12/5,9:00:00,21.8 ,50.8 ,15.6 ,9.8 ,20.0 
2002/12/5,9:15:00,21.9 ,50.5 ,15.6 ,9.4 ,20.1 
2002/12/5,9:30:00,22.0 ,50.5 ,15.6 ,9.6 ,20.1 
2002/12/5,9:45:00,22.0 ,50.5 ,15.7 ,9.8 ,20.2 
2002/12/5,10:00:00,22.1 ,50.5 ,15.7 ,9.9 ,20.2 
2002/12/5,10:15:00,22.1 ,50.4 ,15.8 ,10.1 ,20.3 
2002/12/5,10:30:00,22.1 ,50.2 ,16.1 ,10.2 ,20.3 
2002/12/5,10:45:00,22.1 ,50.1 ,16.3 ,10.4 ,20.3 
2002/12/5,11:00:00,22.1 ,50.1 ,16.5 ,10.6 ,20.4 
2002/12/5,11:15:00,22.1 ,50.0 ,16.6 ,10.7 ,20.4 
2002/12/5,11:30:00,22.1 ,50.0 ,16.7 ,10.9 ,20.4 
2002/12/5,11:45:00,22.2 ,49.8 ,16.8 ,11.0 ,20.4 
2002/12/5,12:00:00,22.2 ,50.9 ,16.9 ,9.0 ,20.4 
2002/12/5,12:15:00,22.2 ,50.4 ,17.0 ,9.2 ,20.9 
2002/12/5,12:30:00,22.2 ,50.5 ,17.1 ,9.4 ,21.4 
2002/12/5,12:45:00,22.3 ,50.4 ,17.2 ,9.5 ,21.6 
2002/12/5,13:00:00,22.3 ,50.4 ,17.3 ,9.7 ,21.6 
2002/12/5,13:15:00,22.4 ,50.4 ,17.4 ,9.8 ,21.7 
2002/12/5,13:30:00,22.4 ,50.4 ,17.4 ,10.0 ,21.7 
2002/12/5,13:45:00,22.4 ,50.4 ,17.5 ,10.2 ,21.6 
2002/12/5,14:00:00,22.5 ,50.4 ,17.6 ,10.4 ,21.5 
2002/12/5,14:15:00,22.5 ,50.3 ,17.6 ,10.5 ,21.4 
2002/12/5,14:30:00,22.5 ,50.2 ,17.7 ,10.0 ,21.3 
2002/12/5,14:45:00,22.5 ,50.2 ,17.8 ,9.9 ,21.2 
2002/12/5,15:00:00,22.5 ,50.2 ,17.8 ,10.1 ,21.1 
2002/12/5,15:15:00,22.4 ,50.1 ,17.8 ,10.3 ,21.1 
2002/12/5,15:30:00,22.4 ,49.9 ,17.9 ,10.4 ,21.0 
2002/12/5,15:45:00,22.3 ,49.7 ,17.9 ,10.6 ,20.9 
2002/12/5,16:00:00,22.3 ,49.5 ,17.9 ,10.8 ,20.8 
2002/12/5,16:15:00,22.3 ,49.5 ,17.9 ,10.9 ,20.8 
2002/12/5,16:30:00,22.3 ,49.4 ,18.0 ,11.1 ,20.7 
2002/12/5,16:45:00,22.2 ,49.3 ,18.0 ,11.3 ,20.7 
2002/12/5,17:00:00,22.2 ,49.2 ,18.0 ,11.4 ,20.7 
2002/12/5,17:15:00,22.2 ,49.1 ,18.0 ,11.6 ,20.6 
2002/12/5,17:30:00,22.1 ,49.1 ,18.0 ,11.7 ,20.5 
2002/12/5,17:45:00,22.1 ,49.3 ,18.0 ,11.9 ,20.5 
2002/12/5,18:00:00,22.1 ,49.2 ,18.0 ,10.0 ,20.5 
2002/12/5,18:15:00,22.1 ,49.4 ,18.0 ,10.2 ,20.4 
2002/12/5,18:30:00,22.1 ,49.4 ,18.0 ,10.3 ,20.4 
2002/12/5,18:45:00,22.0 ,49.5 ,18.0 ,10.5 ,20.7 
2002/12/5,19:00:00,22.0 ,49.2 ,18.0 ,10.7 ,21.1 
2002/12/5,19:15:00,22.0 ,49.2 ,18.0 ,10.8 ,21.3 
2002/12/5,19:30:00,22.0 ,49.3 ,18.0 ,11.0 ,21.4 
2002/12/5,19:45:00,22.0 ,49.2 ,18.0 ,11.2 ,21.3 
2002/12/5,20:00:00,21.9 ,49.1 ,17.9 ,11.3 ,21.2 
2002/12/5,20:15:00,21.9 ,49.4 ,17.9 ,11.4 ,21.3 
2002/12/5,20:30:00,21.9 ,49.3 ,17.9 ,11.6 ,21.0 
2002/12/5,20:45:00,21.9 ,49.2 ,17.9 ,11.8 ,20.9 
2002/12/5,21:00:00,21.9 ,49.0 ,17.9 ,11.9 ,20.8 
2002/12/5,21:15:00,21.9 ,49.1 ,17.9 ,12.0 ,20.9 
2002/12/5,21:30:00,21.9 ,49.3 ,17.9 ,12.2 ,20.7 
2002/12/5,21:45:00,21.8 ,49.2 ,17.9 ,12.3 ,20.6 
2002/12/5,22:00:00,21.8 ,49.1 ,17.9 ,12.4 ,20.5 
2002/12/5,22:15:00,21.8 ,49.0 ,17.9 ,12.5 ,20.4 
2002/12/5,22:30:00,21.7 ,48.9 ,17.9 ,12.6 ,20.3 
2002/12/5,22:45:00,21.7 ,48.8 ,17.8 ,12.8 ,20.3 
2002/12/5,23:00:00,21.7 ,49.4 ,17.8 ,10.5 ,20.3 
2002/12/5,23:15:00,21.7 ,49.3 ,17.6 ,10.6 ,20.2 
2002/12/5,23:30:00,21.7 ,49.0 ,17.5 ,10.8 ,20.2 
2002/12/5,23:45:00,21.6 ,50.4 ,17.3 ,10.9 ,20.1 
2002/12/6,0:00:00,21.6 ,50.0 ,17.3 ,11.1 ,20.1 
2002/12/6,0:15:00,21.6 ,49.6 ,17.2 ,11.2 ,20.1 
2002/12/6,0:30:00,21.6 ,49.6 ,17.1 ,11.4 ,20.0 
2002/12/6,0:45:00,21.5 ,49.7 ,17.1 ,10.9 ,19.9 
2002/12/6,1:00:00,21.5 ,50.1 ,17.0 ,11.0 ,19.9 